Weather History for KJOT - June, 2013

Change the Weather History Date:

Sunday, June 2, 2013

  Actual Average (KLOT) Record (KLOT)
Temperature  
Mean Temperature 53 °F 66 °F  
Max Temperature 62 °F 76 °F 87 °F (2008)
Min Temperature 43 °F 55 °F 42 °F (2003)
Degree Days  
Heating Degree Days 12 3  
Month to date heating degree days 6  
Since 1 June heating degree days 6  
Since 1 July heating degree days 6192  
Cooling Degree Days 0 4  
Month to date cooling degree days 7  
Year to date cooling degree days 65  
Since 1 June cooling degree days 7  
Growing Degree Days 3 (Base 50)    
Moisture  
Dew Point 52 °F    
Average Humidity 87    
Maximum Humidity 97    
Minimum Humidity 75    
Precipitation  
Precipitation 0.01 in 0.16 in 1.27 in (2010)
Month to date precipitation 0.31  
Year to date precipitation 15.01  
Sea Level Pressure  
Sea Level Pressure 29.94 in    
Wind  
Wind Speed 7 mph (North)    
Max Wind Speed 17 mph    
Max Gust Speed 138 mph    
Visibility 9 miles    
Events Rain    
T = Trace of Precipitation, MM = Missing Value Source: NWS Daily Summary

Daily Weather History Graph

Daily Weather History Graph

Search for Another Location

Airport or City:

Trip Planner

Search our weather history database for the weather conditions in past years. The results will help you decide how hot, cold, wet, or windy it might be!

Date:

Astronomy

Jun. 02, 2013 Rise Set
Actual Time 5:20 AM CDT 8:21 PM CDT
Civil Twilight 4:47 AM CDT 8:54 PM CDT
Nautical Twilight 4:05 AM CDT 9:37 PM CDT
Astronomical Twilight 3:15 AM CDT 10:27 PM CDT
Moon 1:51 AM CDT (6/2) 2:48 PM CDT (6/2)
Length of Visible Light 16h 07m
Length of Day
15h 00m
Waning Crescent, 30% of the Moon is Illuminated
Jun 2
Waning Crescent
Jun 8
New
Jun 16
First Quarter
Jun 23
Full
Jun 29
Last Quarter

Hourly Weather History & Observations

Time (CDT) Temp. Dew Point Humidity Pressure Visibility Wind Dir Wind Speed Gust Speed Precip Events Conditions
12:15 AM 63.3 °F 58.5 °F 84% 29.76 in 10.0 mi WSW 9.2 mph - N/A   Overcast
12:35 AM 62.6 °F 58.1 °F 85% 29.76 in 10.0 mi WSW 6.9 mph - N/A   Scattered Clouds
12:55 AM 62.2 °F 57.9 °F 86% 29.77 in 10.0 mi WSW 9.2 mph 16.1 mph N/A   Scattered Clouds
1:15 AM 61.9 °F 57.7 °F 86% 29.76 in 10.0 mi WSW 8.1 mph 138.1 mph N/A   Scattered Clouds
1:35 AM 61.7 °F 57.6 °F 86% 29.77 in 10.0 mi WSW 6.9 mph - N/A   Clear
1:55 AM 61.2 °F 57.6 °F 88% 29.77 in 10.0 mi WSW 6.9 mph - N/A   Clear
2:15 AM 60.8 °F 57.6 °F 89% 29.77 in 10.0 mi WSW 5.8 mph - N/A   Clear
2:35 AM 60.4 °F 57.6 °F 90% 29.77 in 10.0 mi WSW 5.8 mph - N/A   Clear
2:55 AM 60.3 °F 57.6 °F 91% 29.77 in 10.0 mi WSW 5.8 mph - N/A   Clear
3:15 AM 60.3 °F 57.6 °F 91% 29.77 in 10.0 mi West 5.8 mph - N/A   Clear
3:35 AM 60.8 °F 57.6 °F 89% 29.77 in 10.0 mi West 4.6 mph - N/A   Clear
3:55 AM 60.6 °F 57.6 °F 90% 29.78 in 10.0 mi West 6.9 mph - N/A   Clear
4:15 AM 60.4 °F 57.6 °F 90% 29.78 in 10.0 mi West 6.9 mph - N/A   Scattered Clouds
4:35 AM 60.1 °F 57.6 °F 91% 29.79 in 10.0 mi West 4.6 mph - N/A   Scattered Clouds
4:55 AM 59.9 °F 57.6 °F 92% 29.81 in 10.0 mi WSW 6.9 mph 135.8 mph N/A   Scattered Clouds
5:15 AM 60.3 °F 58.1 °F 93% 29.82 in 10.0 mi WSW 5.8 mph - N/A   Mostly Cloudy
5:35 AM 60.8 °F 58.1 °F 91% 29.83 in 10.0 mi West 5.8 mph - N/A   Mostly Cloudy
5:55 AM 61.0 °F 58.3 °F 91% 29.84 in 10.0 mi West 5.8 mph - N/A   Mostly Cloudy
6:15 AM 61.0 °F 58.3 °F 91% 29.85 in 10.0 mi West 5.8 mph - N/A   Overcast
6:35 AM 61.9 °F 57.9 °F 87% 29.85 in 10.0 mi West 5.8 mph - N/A   Mostly Cloudy
6:55 AM 62.4 °F 58.1 °F 86% 29.86 in 10.0 mi WNW 5.8 mph - N/A   Scattered Clouds
7:15 AM 61.7 °F 57.4 °F 86% 29.87 in 10.0 mi WNW 5.8 mph - N/A   Scattered Clouds
7:35 AM 62.1 °F 56.8 °F 83% 29.87 in 10.0 mi WNW 6.9 mph - N/A   Mostly Cloudy
7:55 AM 62.1 °F 56.5 °F 82% 29.87 in 10.0 mi NNW 17.3 mph 20.7 mph N/A   Mostly Cloudy
8:15 AM 62.1 °F 55.8 °F 80% 29.88 in 10.0 mi NNW 10.4 mph 18.4 mph N/A   Scattered Clouds
8:35 AM 60.8 °F 54.3 °F 79% 29.90 in 10.0 mi NNW 9.2 mph 17.3 mph N/A   Mostly Cloudy
8:55 AM 59.9 °F 53.1 °F 78% 29.90 in 10.0 mi North 9.2 mph - N/A   Overcast
9:15 AM 59.9 °F 53.1 °F 78% 29.91 in 10.0 mi North 9.2 mph - N/A   Overcast
9:35 AM 60.8 °F 52.9 °F 75% 29.91 in 10.0 mi North 10.4 mph - N/A   Overcast
9:55 AM 60.1 °F 52.5 °F 76% 29.91 in 10.0 mi North 9.2 mph - N/A   Overcast
10:15 AM 60.1 °F 52.5 °F 76% 29.93 in 10.0 mi North 9.2 mph - N/A   Overcast
10:35 AM 59.0 °F 51.8 °F 77% 29.94 in 10.0 mi NNE 8.1 mph - N/A   Overcast
10:55 AM 57.7 °F 52.5 °F 83% 29.95 in 10.0 mi ENE 6.9 mph - N/A   Overcast
11:15 AM 56.5 °F 52.0 °F 85% 29.96 in 10.0 mi ENE 8.1 mph - N/A   Overcast
11:35 AM 56.3 °F 51.4 °F 84% 29.97 in 10.0 mi ENE 4.6 mph - N/A   Overcast
11:55 AM 55.6 °F 51.3 °F 85% 29.97 in 10.0 mi ENE 4.6 mph - N/A   Overcast
12:15 PM 55.4 °F 51.3 °F 86% 29.97 in 10.0 mi East 5.8 mph - N/A   Overcast
12:35 PM 54.5 °F 50.9 °F 88% 29.98 in 10.0 mi ENE 6.9 mph - N/A   Overcast
12:55 PM 54.9 °F 51.1 °F 87% 29.98 in 10.0 mi East 6.9 mph - N/A   Overcast
1:15 PM 54.7 °F 51.1 °F 88% 29.99 in 10.0 mi ENE 6.9 mph - N/A   Overcast
1:35 PM 54.7 °F 50.9 °F 87% 30.00 in 10.0 mi East 3.5 mph - N/A   Overcast
1:55 PM 54.1 °F 50.7 °F 88% 30.00 in 10.0 mi East 4.6 mph - N/A   Overcast
2:15 PM 54.0 °F 50.7 °F 89% 30.00 in 5.0 mi ENE 5.8 mph - N/A   Overcast
2:35 PM 53.8 °F 50.9 °F 90% 30.01 in 3.0 mi East 5.8 mph - N/A   Overcast
2:55 PM 52.7 °F 50.2 °F 91% 30.02 in 2.0 mi ENE 9.2 mph - N/A   Overcast
3:15 PM 51.6 °F 49.8 °F 94% 30.02 in 2.5 mi NE 8.1 mph - N/A Rain Rain
3:35 PM 51.1 °F 49.3 °F 94% 30.02 in 2.0 mi ENE 6.9 mph - N/A   Drizzle
3:55 PM 51.3 °F 49.1 °F 92% 30.02 in 5.0 mi East 8.1 mph - N/A   Overcast
4:15 PM 51.3 °F 49.1 °F 92% 30.02 in 10.0 mi East 6.9 mph - N/A   Overcast
4:35 PM 50.9 °F 48.4 °F 91% 30.03 in 10.0 mi NE 5.8 mph - N/A   Overcast
4:55 PM 50.7 °F 47.7 °F 89% 30.03 in 10.0 mi NE 6.9 mph - N/A   Overcast
5:15 PM 51.4 °F 48.4 °F 89% 30.03 in 10.0 mi ENE 5.8 mph - N/A   Mostly Cloudy
5:35 PM 50.9 °F 47.3 °F 87% 30.03 in 10.0 mi ENE 8.1 mph - N/A   Overcast
5:55 PM 50.9 °F 47.1 °F 87% 30.03 in 10.0 mi NE 5.8 mph - N/A   Overcast
6:15 PM 50.9 °F 46.6 °F 85% 30.03 in 10.0 mi NE 3.5 mph - N/A   Overcast
6:35 PM 50.9 °F 46.6 °F 85% 30.04 in 10.0 mi Calm Calm - N/A   Overcast
6:55 PM 50.9 °F 46.2 °F 84% 30.04 in 10.0 mi NE 6.9 mph - N/A   Overcast
7:15 PM 50.9 °F 46.4 °F 85% 30.04 in 10.0 mi NE 5.8 mph - N/A   Overcast
7:35 PM 50.4 °F 45.9 °F 85% 30.04 in 10.0 mi ENE 5.8 mph - N/A   Overcast
7:55 PM 50.4 °F 45.9 °F 85% 30.04 in 10.0 mi Calm Calm - N/A   Overcast
8:15 PM 50.0 °F 45.5 °F 85% 30.04 in 10.0 mi NE 4.6 mph - N/A   Overcast
8:35 PM 50.0 °F 45.5 °F 85% 30.04 in 10.0 mi NNE 5.8 mph - N/A   Overcast
8:55 PM 50.0 °F 45.5 °F 85% 30.04 in 10.0 mi Calm Calm - N/A   Overcast
9:15 PM 50.0 °F 45.1 °F 83% 30.06 in 10.0 mi North 3.5 mph - N/A   Overcast
9:35 PM 50.0 °F 45.9 °F 86% 30.06 in 10.0 mi Calm Calm - N/A   Overcast
9:55 PM 50.2 °F 45.3 °F 83% 30.06 in 10.0 mi Calm Calm - N/A   Overcast
10:15 PM 49.8 °F 45.5 °F 85% 30.06 in 10.0 mi Calm Calm - N/A   Mostly Cloudy
10:35 PM 48.7 °F 44.8 °F 86% 30.06 in 10.0 mi Calm Calm - N/A   Scattered Clouds
10:55 PM 45.3 °F 43.3 °F 93% 30.06 in 10.0 mi Calm Calm - N/A   Clear
11:15 PM 46.0 °F 44.1 °F 93% 30.06 in 10.0 mi Calm Calm - N/A   Clear
11:35 PM 43.5 °F 42.1 °F 95% 30.06 in 10.0 mi Calm Calm - N/A   Clear
11:55 PM 43.9 °F 43.0 °F 97% 30.07 in 5.0 mi Calm Calm - N/A   Clear